Location: Hamilton
(43.2500°N, 79.8330°W)
Time: 12:41:15
(UTC-04:00)

Amateur Radio Satellites - All Passes

Search period start: 30 October 2014 12:11
Search period end: 31 October 2014 12:11
Location: Hamilton, 43.2500°N, 79.8330°W

Satellite Date Start Highest point End Downlink Frequencies (MHz)
Time Altitude Azimuth
KITSAT 1 30 Oct 12:21:25 12:29:30 78° 303° (WNW) 12:37:38 435.175 FM
Oscar 16 30 Oct 12:24:54 12:27:13 13° 58° (ENE) 12:29:32 437.025 USB, Beacon 2401.1428
JAS-1B 30 Oct 12:27:36 12:30:34 15° 55° (NE) 12:33:34 435.800 - 435.900 CW/SSB
UOSAT-12 30 Oct 12:39:22 12:41:55 15° 108° (ESE) 12:44:29 437.025 FM, 437.400 FM
UKube-1 30 Oct 12:47:44 12:49:02 11° 301° (WNW) 12:50:21 145.840 MHz, 145.915 MHz
ZACube-1 30 Oct 12:52:56 12:55:54 19° 295° (WNW) 12:58:49 437.345 MHz
Uribyol 2 30 Oct 12:56:29 12:58:03 11° 56° (NE) 12:59:38 436.500 FM
ITAMSAT 1 30 Oct 13:03:32 13:05:38 13° 57° (ENE) 13:07:44 435.822 SSB
ISS 30 Oct 13:06:32 13:09:27 27° 343° (NNW) 13:12:22 145.800 FM
AO-Echo 30 Oct 13:08:38 13:11:45 17° 60° (ENE) 13:14:56 ?
Oscar 19 30 Oct 13:14:29 13:19:05 34° 67° (ENE) 13:23:41 437.125 CW, 437.150 USB
Saudisat 1A 30 Oct 13:21:47 13:22:50 11° 31° (NNE) 13:23:53 436.775 MHz
Sapphire 30 Oct 13:24:30 13:29:12 31° 250° (WSW) 13:33:53 437.095 MHz 1200 baud AX-25 AFSK
SO-50 30 Oct 13:27:53 13:31:46 27° 317° (NW) 13:35:46 436.795 FM
PCSat 30 Oct 13:47:08 13:50:47 19° 255° (WSW) 13:54:25 145.825 MHz
AO-27 30 Oct 13:47:55 13:52:25 30° 66° (ENE) 13:56:57 436.795 MHz FM
Gurwin Techsat 1B 30 Oct 13:57:38 14:01:29 21° 62° (ENE) 14:05:20 435.225 FM
Oscar 16 30 Oct 14:00:39 14:05:49 90° 256° (WSW) 14:10:59 437.025 USB, Beacon 2401.1428
TMSAT-1 30 Oct 14:05:11 14:08:41 18° 60° (ENE) 14:12:12 436.925 FM
JAS-1B 30 Oct 14:14:42 14:20:29 82° 256° (WSW) 14:26:15 435.800 - 435.900 CW/SSB
UOSAT-12 30 Oct 14:16:50 14:21:28 71° 306° (NW) 14:26:12 437.025 FM, 437.400 FM
KITSAT 1 30 Oct 14:19:56 14:26:17 25° 327° (NNW) 14:32:40 435.175 FM
Uribyol 2 30 Oct 14:31:25 14:36:38 76° 74° (ENE) 14:41:53 436.500 FM
ITAMSAT 1 30 Oct 14:39:05 14:44:18 84° 75° (ENE) 14:49:34 435.822 SSB
ISS 30 Oct 14:44:25 14:46:55 19° 3° (N) 14:49:24 145.800 FM
AO-Echo 30 Oct 14:44:57 14:49:54 69° 258° (WSW) 14:55:04 ?
Oscar 19 30 Oct 14:53:54 14:58:25 31° 264° (W) 15:02:56 437.125 CW, 437.150 USB
Saudisat 1A 30 Oct 14:59:06 15:03:26 51° 51° (NE) 15:07:45 436.775 MHz
AO-7 30 Oct 15:06:13 15:13:01 30° 55° (NE) 15:19:50 29.400 - 29.500 MHz
AO-27 30 Oct 15:27:02 15:31:49 36° 263° (W) 15:36:39 436.795 MHz FM
Gurwin Techsat 1B 30 Oct 15:35:47 15:41:00 58° 259° (W) 15:46:16 435.225 FM
TMSAT-1 30 Oct 15:42:48 15:48:04 67° 258° (WSW) 15:53:22 436.925 FM
Oscar 16 30 Oct 15:44:36 15:45:52 11° 272° (W) 15:47:07 437.025 USB, Beacon 2401.1428
UOSAT-12 30 Oct 15:59:55 16:02:29 14° 327° (NNW) 16:05:05 437.025 FM, 437.400 FM
JAS-2 30 Oct 16:06:23 16:10:00 16° 51° (NE) 16:13:49 435.800 - 435.900 CW/SSB, 435.910 FM
Uribyol 2 30 Oct 16:14:04 16:16:41 14° 271° (W) 16:19:18 436.500 FM
ISS 30 Oct 16:21:09 16:24:17 36° 23° (NNE) 16:27:24 145.800 FM
KITSAT 1 30 Oct 16:21:33 16:25:15 13° 357° (N) 16:28:57 435.175 FM
ITAMSAT 1 30 Oct 16:22:20 16:24:26 12° 272° (W) 16:26:32 435.822 SSB
Uosat F 30 Oct 16:35:26 16:40:22 60° 72° (ENE) 16:45:21 435.120 FM
Saudisat 1A 30 Oct 16:39:33 16:42:37 19° 249° (WSW) 16:45:41 436.775 MHz
Hamsat 30 Oct 16:54:35 16:55:52 11° 61° (ENE) 16:57:08 145.90 MHz
AO-7 30 Oct 16:56:55 17:05:09 71° 255° (WSW) 17:13:28 29.400 - 29.500 MHz
JAS-2 30 Oct 17:47:25 17:53:40 74° 73° (ENE) 18:00:48 435.800 - 435.900 CW/SSB, 435.910 FM
ISS 30 Oct 17:57:52 18:00:59 37° 221° (SW) 18:04:06 145.800 FM
Uosat F 30 Oct 18:16:22 18:19:33 17° 269° (W) 18:22:45 435.120 FM
KITSAT 1 30 Oct 18:18:36 18:24:27 21° 28° (NNE) 18:30:17 435.175 FM
SO-67 30 Oct 18:26:20 18:27:25 11° 65° (ENE) 18:28:30 435.3500 MHz FM
Hamsat 30 Oct 18:27:03 18:31:13 73° 258° (WSW) 18:35:24 145.90 MHz
SO-50 30 Oct 18:38:11 18:40:12 12° 31° (NNE) 18:42:15 436.795 FM
OPAL 30 Oct 18:38:27 18:43:22 61° 104° (ESE) 18:48:15 ?
AO-40 30 Oct 18:49:12 00:53:02 42° 182° (S) 05:06:03 Beacon 2401.320
AO-7 30 Oct 18:55:56 18:59:23 13° 274° (W) 19:02:51 29.400 - 29.500 MHz
STRAND 1 30 Oct 18:56:09 18:58:42 14° 89° (E) 19:01:15 ?
JAS-2 30 Oct 19:35:09 19:39:35 20° 274° (W) 19:44:24 435.800 - 435.900 CW/SSB, 435.910 FM
SO-67 30 Oct 19:56:39 19:59:58 46° 261° (W) 20:03:18 435.3500 MHz FM
KITSAT 1 30 Oct 20:13:36 20:21:38 63° 53° (NE) 20:29:37 435.175 FM
SO-50 30 Oct 20:17:04 20:21:50 54° 51° (NE) 20:26:37 436.795 FM
RS-15 30 Oct 20:18:10 20:26:12 24° 101° (ESE) 20:34:08 29.354 - 29.394 USB, Beacon 29.352 USB
OPAL 30 Oct 20:18:29 20:21:47 18° 301° (WNW) 20:25:06 ?
HO-68 30 Oct 20:21:42 20:28:08 38° 62° (ENE) 20:34:35 435.675 MHz FM
STRAND 1 30 Oct 20:33:18 20:38:28 75° 286° (WNW) 20:43:34 ?
UOSAT-12 30 Oct 21:06:04 21:09:46 22° 40° (NE) 21:13:25 437.025 FM, 437.400 FM
Oscar 11 30 Oct 21:06:40 21:09:35 18° 64° (ENE) 21:12:30 145.825 FM, Beacon 2401.500 USB
FUNcube-1 30 Oct 21:22:33 21:24:22 12° 61° (ENE) 21:26:11 145.950 - 145.970 MHz USB
Oscar 10/S400 30 Oct 21:40:23 22:23:09 45° 206° (SSW) 05:19:51 145.825 - 145.975 CW/USB, Beacon 145.810 USB
SO-50 30 Oct 21:58:26 22:02:03 21° 249° (WSW) 22:05:40 436.795 FM
UKube-1 30 Oct 22:05:16 22:09:37 81° 75° (ENE) 22:14:01 145.840 MHz, 145.915 MHz
HO-68 30 Oct 22:08:51 22:15:40 46° 261° (W) 22:22:34 435.675 MHz FM
KITSAT 1 30 Oct 22:09:40 22:16:32 32° 253° (WSW) 22:23:23 435.175 FM
ZACube-1 30 Oct 22:12:56 22:17:08 39° 71° (ENE) 22:21:16 437.345 MHz
STRAND 1 30 Oct 22:15:29 22:16:45 11° 304° (NW) 22:18:00 ?
RS-15 30 Oct 22:26:01 22:37:03 88° 303° (WNW) 22:48:04 29.354 - 29.394 USB, Beacon 29.352 USB
MaSat-1 30 Oct 22:30:24 22:34:00 35° 112° (ESE) 22:37:18 437.345 MHz
Oscar 11 30 Oct 22:41:17 22:45:25 45° 261° (W) 22:49:35 145.825 FM, Beacon 2401.500 USB
UOSAT-12 30 Oct 22:45:39 22:50:19 62° 240° (WSW) 22:54:53 437.025 FM, 437.400 FM
FUNcube-1 30 Oct 22:55:37 23:00:10 77° 258° (WSW) 23:04:38 145.950 - 145.970 MHz USB
ZACube-1 30 Oct 23:50:10 23:53:38 21° 266° (W) 23:57:04 437.345 MHz
MaSat-1 31 Oct 00:06:46 00:09:29 19° 305° (NW) 00:12:00 437.345 MHz
RS-15 31 Oct 00:41:26 00:51:02 34° 331° (NNW) 01:00:45 29.354 - 29.394 USB, Beacon 29.352 USB
Oscar 19 31 Oct 01:28:09 01:28:37 10° 87° (E) 01:29:05 437.125 CW, 437.150 USB
JAS-1B 31 Oct 01:55:43 02:01:50 29° 95° (E) 02:08:49 435.800 - 435.900 CW/SSB
Oscar 16 31 Oct 02:11:44 02:16:11 29° 95° (E) 02:20:37 437.025 USB, Beacon 2401.1428
Sapphire 31 Oct 02:24:11 02:28:48 30° 109° (ESE) 02:33:27 437.095 MHz 1200 baud AX-25 AFSK
Uribyol 2 31 Oct 02:43:48 02:48:02 25° 94° (E) 02:52:14 436.500 FM
PCSat 31 Oct 02:45:14 02:50:24 48° 114° (ESE) 02:55:37 145.825 MHz
AO-Echo 31 Oct 02:51:13 02:56:10 38° 97° (E) 03:01:02 ?
ITAMSAT 1 31 Oct 02:51:28 02:55:54 27° 95° (E) 03:00:18 435.822 SSB
RS-15 31 Oct 02:59:34 03:07:58 24° 6° (N) 03:16:33 29.354 - 29.394 USB, Beacon 29.352 USB
Oscar 19 31 Oct 03:03:33 03:08:42 86° 104° (ESE) 03:13:49 437.125 CW, 437.150 USB
AO-27 31 Oct 03:38:26 03:43:41 75° 103° (ESE) 03:48:53 436.795 MHz FM
JAS-1B 31 Oct 03:45:46 03:52:38 62° 289° (WNW) 04:00:51 435.800 - 435.900 CW/SSB
Gurwin Techsat 1B 31 Oct 03:50:52 03:56:05 53° 100° (E) 04:01:15 435.225 FM
Oscar 16 31 Oct 03:50:56 03:55:34 36° 292° (WNW) 04:00:11 437.025 USB, Beacon 2401.1428
TMSAT-1 31 Oct 03:57:39 04:02:45 45° 99° (E) 04:07:48 436.925 FM
Sapphire 31 Oct 04:06:54 04:12:03 43° 308° (NW) 04:17:14 437.095 MHz 1200 baud AX-25 AFSK
OPAL 31 Oct 04:17:51 04:21:10 18° 59° (ENE) 04:24:28 ?
Uribyol 2 31 Oct 04:22:46 04:27:40 43° 291° (WNW) 04:32:32 436.500 FM
PCSat 31 Oct 04:29:21 04:34:02 29° 313° (NW) 04:38:45 145.825 MHz
AO-Echo 31 Oct 04:30:10 04:34:46 30° 294° (WNW) 04:39:20 ?
ITAMSAT 1 31 Oct 04:30:39 04:35:29 39° 292° (WNW) 04:40:17 435.822 SSB
Uosat F 31 Oct 04:43:17 04:46:32 17° 91° (E) 04:49:46 435.120 FM
Oscar 19 31 Oct 04:44:53 04:47:19 14° 302° (WNW) 04:49:44 437.125 CW, 437.150 USB
AO-7 31 Oct 04:57:28 05:05:06 38° 98° (E) 05:12:42 29.400 - 29.500 MHz
JAS-2 31 Oct 04:58:28 05:01:33 13° 82° (E) 05:04:35 435.800 - 435.900 CW/SSB, 435.910 FM
RS-15 31 Oct 05:13:48 05:24:16 44° 39° (NE) 05:35:04 29.354 - 29.394 USB, Beacon 29.352 USB
AO-27 31 Oct 05:19:28 05:22:34 16° 301° (WNW) 05:25:39 436.795 MHz FM
Gurwin Techsat 1B 31 Oct 05:31:39 05:35:40 22° 297° (WNW) 05:39:40 435.225 FM
TMSAT-1 31 Oct 05:38:08 05:42:24 25° 296° (WNW) 05:46:39 436.925 FM
JAS-1B 31 Oct 05:39:31 05:42:11 12° 307° (NW) 05:45:01 435.800 - 435.900 CW/SSB
OPAL 31 Oct 05:54:28 05:59:33 66° 256° (WSW) 06:04:36 ?
Sapphire 31 Oct 05:55:57 05:56:59 11° 330° (NNW) 05:58:00 437.095 MHz 1200 baud AX-25 AFSK
Hamsat 31 Oct 06:12:24 06:15:20 18° 92° (E) 06:18:16 145.90 MHz
STRAND 1 31 Oct 06:12:32 06:16:34 24° 63° (ENE) 06:20:36 ?
Uosat F 31 Oct 06:20:44 06:25:43 60° 288° (WNW) 06:30:39 435.120 FM
JAS-2 31 Oct 06:40:04 06:47:55 67° 101° (E) 06:55:31 435.800 - 435.900 CW/SSB, 435.910 FM
Saudisat 1A 31 Oct 06:45:22 06:49:45 87° 125° (SE) 06:54:11 436.775 MHz
AO-7 31 Oct 06:50:06 06:58:04 52° 297° (WNW) 07:06:02 29.400 - 29.500 MHz
SO-67 31 Oct 07:20:57 07:21:38 10° 90° (E) 07:22:18 435.3500 MHz FM
RS-15 31 Oct 07:26:18 07:37:19 68° 243° (WSW) 07:48:50 29.354 - 29.394 USB, Beacon 29.352 USB
Hamsat 31 Oct 07:47:29 07:51:27 40° 288° (WNW) 07:55:25 145.90 MHz
STRAND 1 31 Oct 07:50:31 07:55:27 47° 261° (W) 08:00:26 ?
MaSat-1 31 Oct 08:13:47 08:16:18 87° 63° (ENE) 08:18:40 437.345 MHz
JAS-2 31 Oct 08:25:47 08:32:20 30° 300° (WNW) 08:38:47 435.800 - 435.900 CW/SSB, 435.910 FM
Saudisat 1A 31 Oct 08:27:13 08:29:56 16° 323° (NW) 08:32:40 436.775 MHz
AO-7 31 Oct 08:45:33 08:48:57 13° 319° (NW) 08:52:21 29.400 - 29.500 MHz
SO-67 31 Oct 08:51:32 08:54:51 45° 286° (WNW) 08:58:09 435.3500 MHz FM
HO-68 31 Oct 09:35:15 09:41:40 34° 96° (E) 09:48:01 435.675 MHz FM
RS-15 31 Oct 09:42:10 09:47:30 15° 264° (W) 09:52:57 29.354 - 29.394 USB, Beacon 29.352 USB
PCSat 31 Oct 09:50:36 09:52:29 12° 32° (NNE) 09:54:22 145.825 MHz
UKube-1 31 Oct 09:54:18 09:56:12 13° 90° (E) 09:58:06 145.840 MHz, 145.915 MHz
Oscar 11 31 Oct 10:27:55 10:31:41 29° 96° (E) 10:35:25 145.825 FM, Beacon 2401.500 USB
SO-50 31 Oct 10:35:54 10:37:42 12° 107° (ESE) 10:39:31 436.795 FM
ISS 31 Oct 10:40:21 10:43:27 38° 140° (SE) 10:46:35 145.800 FM
KITSAT 1 31 Oct 10:43:32 10:50:40 36° 109° (ESE) 10:57:49 435.175 FM
FUNcube-1 31 Oct 10:44:45 10:47:39 18° 92° (E) 10:50:31 145.950 - 145.970 MHz USB
Sapphire 31 Oct 11:10:27 11:15:21 33° 49° (NE) 11:20:13 437.095 MHz 1200 baud AX-25 AFSK
HO-68 31 Oct 11:22:41 11:29:34 50° 294° (WNW) 11:36:24 435.675 MHz FM
UKube-1 31 Oct 11:28:28 11:32:48 63° 287° (WNW) 11:37:06 145.840 MHz, 145.915 MHz
PCSat 31 Oct 11:31:58 11:37:16 49° 54° (NE) 11:42:30 145.825 MHz
ZACube-1 31 Oct 11:37:08 11:41:20 70° 102° (ESE) 11:45:28 437.345 MHz
